Star Princess — ZCDD6 — position and weather

sailwx.info

Track history (hours):
 
Tides and Currents Weather Stations Pressure Air Temp Water Temp Dewpoint Dewpoint Depression Visibility Wind Speed Wind Dir Waves Ship Positions

Star Princess

Operator: Princess Cruises

Last reported at 2019-Sep-20 23:00 UTC. Time now 2019-Sep-21 00:26 UTC.
Position N 52°42' W 132°30'.

Length 289.6 m; beam 36 m; draft 8.4 m.

Type: Ship. MMSI: 310361000.

Wind from 170 at 30 knots

Barometer 1018.1 mb
Air temperature 15.0 ° C
Visibility: greater than 5.4 NM
Dewpoint 15.0 ° C
Water temperature 14.8 ° C

Date/timePositionNaut miles runAvg speedWind from/ knotsBaromVisibWave heightAir tempDewpointWater temp
2019-Sep-20 23:00N 52°42' W 132°30'7518.8 170 / 301018.1 5.4 15.015.014.8
2019-Sep-20 19:00N 53°48' W 133°30'7418.5 180 / 421011.1 5.4 15.013.215.0
2019-Sep-20 15:00N 55°00' W 134°00'8521.3 150 / 451013.0 2.2 12.511.613.0
2019-Sep-20 11:00N 56°24' W 134°24'14618.2 180 / 251015.810.8 11.510.511.0
2019-Sep-20 03:00N 58°48' W 135°06'3 0.2 180 / 251015.310.8 12.010.112.0
2019-Sep-19 11:00N 58°48' W 135°12'256 5.4 160 / 211006.510.8 12.011.012.0
2019-Sep-17 11:58N 55°09' W 131°11'1412.5
2019-Sep-17 10:50N 54°55' W 131°08'412.7
2019-Sep-17 10:30N 54°51' W 131°08'812.4
2019-Sep-17 09:52N 54°43' W 131°13'811.6
2019-Sep-17 09:13N 54°36' W 131°17'314.1
2019-Sep-17 09:00N 54°33' W 131°16'42115.7
2019-Sep-17 09:00N 54°36' W 131°12'1021.0 070 / 30995.610.8 12.0 7.914.0
2019-Sep-17 08:31N 54°26' W 131°16'713.3
2019-Sep-17 08:00N 54°19' W 131°15'612.8
2019-Sep-17 07:30N 54°13' W 131°15'713.3
2019-Sep-17 07:00N 54°06' W 131°15'713.6
2019-Sep-17 06:30N 53°60' W 131°13'713.8
2019-Sep-17 06:00N 53°53' W 131°11'714.4
2019-Sep-17 05:30N 53°46' W 131°08'917.9
2019-Sep-17 05:00N 53°37' W 131°05'917.8
2019-Sep-17 04:31N 53°28' W 131°01'917.7
2019-Sep-17 04:00N 53°20' W 130°57'1217.8
2019-Sep-17 03:18N 53°09' W 130°49'2921.9
2019-Sep-17 02:00N 52°42' W 130°30'6015.0 130 / 301001.610.8 14.513.216.0
2019-Sep-16 22:00N 51°48' W 129°48'1539.5 170 / 231001.610.8 15.512.416.0
2019-Sep-16 21:37N 51°34' W 129°43'2718.5
2019-Sep-16 20:09N 51°09' W 129°26'518.7
2019-Sep-16 19:53N 51°04' W 129°23'617.5
2019-Sep-16 19:30N 50°58' W 129°18'918.1
2019-Sep-16 19:00N 50°50' W 129°13'917.0
2019-Sep-16 18:27N 50°42' W 129°04'714.6
2019-Sep-16 18:00N 50°36' W 129°00'423.2 190 / 121007.310.8 14.010.217.0
2019-Sep-16 17:48N 50°34' W 128°54'517.3
2019-Sep-16 17:31N 50°30' W 128°49'1017.6
2019-Sep-16 16:55N 50°22' W 128°39'1117.8
2019-Sep-16 16:17N 50°13' W 128°28'4318.8
2019-Sep-16 14:00N 49°42' W 127°42'4516.3 030 / 71012.110.8 14.011.217.0
2019-Sep-16 11:14N 49°14' W 126°48'517.9
2019-Sep-16 10:58N 49°11' W 126°42'818.1
2019-Sep-16 10:30N 49°07' W 126°31'918.2
2019-Sep-16 10:00N 49°02' W 126°19'918.6
2019-Sep-16 09:30N 48°58' W 126°06'918.8
2019-Sep-16 09:00N 48°54' W 125°53'918.4
2019-Sep-16 08:30N 48°50' W 125°41'918.6
2019-Sep-16 08:00N 48°47' W 125°28'918.6
2019-Sep-16 07:30N 48°42' W 125°16'918.9
2019-Sep-16 07:00N 48°38' W 125°03'918.2
2019-Sep-16 06:30N 48°33' W 124°51'918.6
2019-Sep-16 06:00N 48°29' W 124°38'918.7
2019-Sep-16 05:30N 48°26' W 124°25'1019.0
2019-Sep-16 05:00N 48°22' W 124°12'1019.5
2019-Sep-16 04:30N 48°18' W 123°58'1019.3
2019-Sep-16 04:00N 48°16' W 123°44'1019.4
2019-Sep-16 03:30N 48°15' W 123°30'816.3
2019-Sep-16 03:00N 48°09' W 123°21'916.8
2019-Sep-16 02:30N 48°12' W 123°10'917.6
2019-Sep-16 02:00N 48°12' W 122°57'8517.2
2019-Sep-16 02:00N 48°06' W 122°48'5 7.8 280 / 111010.1 5.4 13.011.112.0
2019-Sep-16 01:19N 48°08' W 122°41'516.6
2019-Sep-16 01:00N 48°03' W 122°38'816.5
2019-Sep-16 00:30N 47°56' W 122°30'917.7
2019-Sep-16 00:00N 47°48' W 122°26'917.6
2019-Sep-15 23:30N 47°39' W 122°27'3 6.0
2019-Sep-15 23:00N 47°38' W 122°23'0 0.0
2019-Sep-15 22:28N 47°38' W 122°23'0 0.0
2019-Sep-15 22:01N 47°38' W 122°23'0 0.0
2019-Sep-15 21:30N 47°38' W 122°23'0 0.0
2019-Sep-15 21:00N 47°38' W 122°23'0 0.0
2019-Sep-15 20:30N 47°38' W 122°23'0 0.0
2019-Sep-15 20:00N 47°38' W 122°23'0 0.0
2019-Sep-15 19:29N 47°38' W 122°23'0 0.0
2019-Sep-15 18:59N 47°38' W 122°23'0 0.0
2019-Sep-15 18:29N 47°38' W 122°23'0 0.0
2019-Sep-15 17:59N 47°38' W 122°23'0 0.0
2019-Sep-15 17:28N 47°38' W 122°23'0 0.0
2019-Sep-15 16:58N 47°38' W 122°23'0 0.0
2019-Sep-15 16:28N 47°38' W 122°23'0 0.0
2019-Sep-15 16:00N 47°38' W 122°23'0 0.0
2019-Sep-15 15:29N 47°38' W 122°23'0 0.0
2019-Sep-15 14:59N 47°38' W 122°23'0 0.0
2019-Sep-15 14:29N 47°38' W 122°23'0 0.0
2019-Sep-15 13:59N 47°38' W 122°23'0 0.0
2019-Sep-15 13:29N 47°38' W 122°23'0 0.3
2019-Sep-15 13:00N 47°38' W 122°23'3 5.0
2019-Sep-15 12:30N 47°38' W 122°27'713.3
2019-Sep-15 12:00N 47°44' W 122°27'612.9
2019-Sep-15 11:30N 47°51' W 122°29'612.3
2019-Sep-15 11:00N 47°56' W 122°32'713.7
2019-Sep-15 10:30N 48°02' W 122°39'612.7
2019-Sep-15 10:00N 48°08' W 122°43'713.7
2019-Sep-15 09:29N 48°11' W 122°52'714.1
2019-Sep-15 09:00N 48°12' W 123°02'816.8
2019-Sep-15 08:30N 48°11' W 123°15'714.6
2019-Sep-15 08:00N 48°10' W 123°25'510.8
2019-Sep-15 07:31N 48°15' W 123°30'815.2
2019-Sep-15 07:00N 48°22' W 123°26'4 7.0
2019-Sep-15 06:30N 48°25' W 123°24'0 0.0
2019-Sep-15 06:00N 48°25' W 123°24'0 0.0
2019-Sep-15 05:30N 48°25' W 123°24'0 0.0
2019-Sep-15 04:59N 48°25' W 123°24'0 0.0
2019-Sep-15 04:29N 48°25' W 123°24'0 0.0
2019-Sep-15 03:59N 48°25' W 123°24'0 0.0
2019-Sep-15 03:29N 48°25' W 123°24'0 0.0
2019-Sep-15 02:59N 48°25' W 123°24'0 0.0
2019-Sep-15 02:28N 48°25' W 123°24'0 0.0
2019-Sep-15 01:58N 48°25' W 123°24'0 0.0
2019-Sep-15 01:29N 48°25' W 123°24'1 1.2
2019-Sep-15 01:00N 48°25' W 123°24'611.1
2019-Sep-15 00:31N 48°19' W 123°25'612.2
2019-Sep-15 00:00N 48°14' W 123°31'612.7
2019-Sep-14 23:30N 48°14' W 123°40'713.0
2019-Sep-14 23:00N 48°14' W 123°50'713.1
2019-Sep-14 22:31N 48°15' W 123°60'713.4
2019-Sep-14 22:00N 48°18' W 124°09'713.4
2019-Sep-14 21:30N 48°21' W 124°18'713.3
2019-Sep-14 21:01N 48°24' W 124°27'713.3
2019-Sep-14 20:30N 48°26' W 124°36'713.4
2019-Sep-14 20:00N 48°29' W 124°46'713.9
2019-Sep-14 19:30N 48°29' W 124°56'713.8
2019-Sep-14 19:00N 48°29' W 125°06'612.7
2019-Sep-14 18:30N 48°31' W 125°15'612.3
2019-Sep-14 18:00N 48°35' W 125°23'6362.7
2019-Sep-14 18:00N 48°30' W 125°18'1428.3 190 / 381010.1 5.4 16.014.315.0
2019-Sep-14 17:30N 48°39' W 125°33'817.0
2019-Sep-14 17:00N 48°44' W 125°44'816.8
2019-Sep-14 16:30N 48°49' W 125°54'917.1
2019-Sep-14 16:00N 48°54' W 126°05'917.3
2019-Sep-14 15:30N 48°59' W 126°15'917.4
2019-Sep-14 15:00N 49°04' W 126°26'917.5
2019-Sep-14 14:29N 49°09' W 126°38'918.3
2019-Sep-14 14:00N 49°14' W 126°49'2174.1
2019-Sep-14 14:00N 49°12' W 126°48'8718.1 200 / 331013.1 5.4 16.515.718.0
2019-Sep-14 09:13N 50°08' W 128°30'2118.2
2019-Sep-14 08:05N 50°22' W 128°53'518.2
2019-Sep-14 07:49N 50°26' W 128°59'1918.0
2019-Sep-14 06:45N 50°38' W 129°22'5815.6
2019-Sep-14 03:00N 51°18' W 130°30'25521.3 220 / 321015.3 5.4 15.514.617.0
2019-Sep-13 15:00N 55°00' W 134°00'   170 / 301003.1 5.4 13.512.612.0
Track history (hours):
 
Tides and Currents Weather Stations Pressure Air Temp Water Temp Dewpoint Dewpoint Depression Visibility Wind Speed Wind Dir Waves Ship Positions

Star Princess

Operator: Princess Cruises

Last reported at 2019-Sep-20 23:00 UTC. Time now 2019-Sep-21 00:26 UTC.
Position N 52°42' W 132°30'.

Length 289.6 m; beam 36 m; draft 8.4 m.

Type: Ship. MMSI: 310361000.

Wind from 170 at 30 knots

Barometer 1018.1 mb
Air temperature 15.0 ° C
Visibility: greater than 5.4 NM
Dewpoint 15.0 ° C
Water temperature 14.8 ° C

Date/timePositionNaut miles runAvg speedWind from/ knotsBaromVisibWave heightAir tempDewpointWater temp
2019-Sep-20 23:00N 52°42' W 132°30'7518.8 170 / 301018.1 5.4 15.015.014.8
2019-Sep-20 19:00N 53°48' W 133°30'7418.5 180 / 421011.1 5.4 15.013.215.0
2019-Sep-20 15:00N 55°00' W 134°00'8521.3 150 / 451013.0 2.2 12.511.613.0
2019-Sep-20 11:00N 56°24' W 134°24'14618.2 180 / 251015.810.8 11.510.511.0
2019-Sep-20 03:00N 58°48' W 135°06'3 0.2 180 / 251015.310.8 12.010.112.0
2019-Sep-19 11:00N 58°48' W 135°12'256 5.4 160 / 211006.510.8 12.011.012.0
2019-Sep-17 11:58N 55°09' W 131°11'1412.5
2019-Sep-17 10:50N 54°55' W 131°08'412.7
2019-Sep-17 10:30N 54°51' W 131°08'812.4
2019-Sep-17 09:52N 54°43' W 131°13'811.6
2019-Sep-17 09:13N 54°36' W 131°17'314.1
2019-Sep-17 09:00N 54°33' W 131°16'42115.7
2019-Sep-17 09:00N 54°36' W 131°12'1021.0 070 / 30995.610.8 12.0 7.914.0
2019-Sep-17 08:31N 54°26' W 131°16'713.3
2019-Sep-17 08:00N 54°19' W 131°15'612.8
2019-Sep-17 07:30N 54°13' W 131°15'713.3
2019-Sep-17 07:00N 54°06' W 131°15'713.6
2019-Sep-17 06:30N 53°60' W 131°13'713.8
2019-Sep-17 06:00N 53°53' W 131°11'714.4
2019-Sep-17 05:30N 53°46' W 131°08'917.9
2019-Sep-17 05:00N 53°37' W 131°05'917.8
2019-Sep-17 04:31N 53°28' W 131°01'917.7
2019-Sep-17 04:00N 53°20' W 130°57'1217.8
2019-Sep-17 03:18N 53°09' W 130°49'2921.9
2019-Sep-17 02:00N 52°42' W 130°30'6015.0 130 / 301001.610.8 14.513.216.0
2019-Sep-16 22:00N 51°48' W 129°48'1539.5 170 / 231001.610.8 15.512.416.0
2019-Sep-16 21:37N 51°34' W 129°43'2718.5
2019-Sep-16 20:09N 51°09' W 129°26'518.7
2019-Sep-16 19:53N 51°04' W 129°23'617.5
2019-Sep-16 19:30N 50°58' W 129°18'918.1
2019-Sep-16 19:00N 50°50' W 129°13'917.0
2019-Sep-16 18:27N 50°42' W 129°04'714.6
2019-Sep-16 18:00N 50°36' W 129°00'423.2 190 / 121007.310.8 14.010.217.0
2019-Sep-16 17:48N 50°34' W 128°54'517.3
2019-Sep-16 17:31N 50°30' W 128°49'1017.6
2019-Sep-16 16:55N 50°22' W 128°39'1117.8
2019-Sep-16 16:17N 50°13' W 128°28'4318.8
2019-Sep-16 14:00N 49°42' W 127°42'4516.3 030 / 71012.110.8 14.011.217.0
2019-Sep-16 11:14N 49°14' W 126°48'517.9
2019-Sep-16 10:58N 49°11' W 126°42'818.1
2019-Sep-16 10:30N 49°07' W 126°31'918.2
2019-Sep-16 10:00N 49°02' W 126°19'918.6
2019-Sep-16 09:30N 48°58' W 126°06'918.8
2019-Sep-16 09:00N 48°54' W 125°53'918.4
2019-Sep-16 08:30N 48°50' W 125°41'918.6
2019-Sep-16 08:00N 48°47' W 125°28'918.6
2019-Sep-16 07:30N 48°42' W 125°16'918.9
2019-Sep-16 07:00N 48°38' W 125°03'918.2
2019-Sep-16 06:30N 48°33' W 124°51'918.6
2019-Sep-16 06:00N 48°29' W 124°38'918.7
2019-Sep-16 05:30N 48°26' W 124°25'1019.0
2019-Sep-16 05:00N 48°22' W 124°12'1019.5
2019-Sep-16 04:30N 48°18' W 123°58'1019.3
2019-Sep-16 04:00N 48°16' W 123°44'1019.4
2019-Sep-16 03:30N 48°15' W 123°30'816.3
2019-Sep-16 03:00N 48°09' W 123°21'916.8
2019-Sep-16 02:30N 48°12' W 123°10'917.6
2019-Sep-16 02:00N 48°12' W 122°57'8517.2
2019-Sep-16 02:00N 48°06' W 122°48'5 7.8 280 / 111010.1 5.4 13.011.112.0
2019-Sep-16 01:19N 48°08' W 122°41'516.6
2019-Sep-16 01:00N 48°03' W 122°38'816.5
2019-Sep-16 00:30N 47°56' W 122°30'917.7
2019-Sep-16 00:00N 47°48' W 122°26'917.6
2019-Sep-15 23:30N 47°39' W 122°27'3 6.0
2019-Sep-15 23:00N 47°38' W 122°23'0 0.0
2019-Sep-15 22:28N 47°38' W 122°23'0 0.0
2019-Sep-15 22:01N 47°38' W 122°23'0 0.0
2019-Sep-15 21:30N 47°38' W 122°23'0 0.0
2019-Sep-15 21:00N 47°38' W 122°23'0 0.0
2019-Sep-15 20:30N 47°38' W 122°23'0 0.0
2019-Sep-15 20:00N 47°38' W 122°23'0 0.0
2019-Sep-15 19:29N 47°38' W 122°23'0 0.0
2019-Sep-15 18:59N 47°38' W 122°23'0 0.0
2019-Sep-15 18:29N 47°38' W 122°23'0 0.0
2019-Sep-15 17:59N 47°38' W 122°23'0 0.0
2019-Sep-15 17:28N 47°38' W 122°23'0 0.0
2019-Sep-15 16:58N 47°38' W 122°23'0 0.0
2019-Sep-15 16:28N 47°38' W 122°23'0 0.0
2019-Sep-15 16:00N 47°38' W 122°23'0 0.0
2019-Sep-15 15:29N 47°38' W 122°23'0 0.0
2019-Sep-15 14:59N 47°38' W 122°23'0 0.0
2019-Sep-15 14:29N 47°38' W 122°23'0 0.0
2019-Sep-15 13:59N 47°38' W 122°23'0 0.0
2019-Sep-15 13:29N 47°38' W 122°23'0 0.3
2019-Sep-15 13:00N 47°38' W 122°23'3 5.0
2019-Sep-15 12:30N 47°38' W 122°27'713.3
2019-Sep-15 12:00N 47°44' W 122°27'612.9
2019-Sep-15 11:30N 47°51' W 122°29'612.3
2019-Sep-15 11:00N 47°56' W 122°32'713.7
2019-Sep-15 10:30N 48°02' W 122°39'612.7
2019-Sep-15 10:00N 48°08' W 122°43'713.7
2019-Sep-15 09:29N 48°11' W 122°52'714.1
2019-Sep-15 09:00N 48°12' W 123°02'816.8
2019-Sep-15 08:30N 48°11' W 123°15'714.6
2019-Sep-15 08:00N 48°10' W 123°25'510.8
2019-Sep-15 07:31N 48°15' W 123°30'815.2
2019-Sep-15 07:00N 48°22' W 123°26'4 7.0
2019-Sep-15 06:30N 48°25' W 123°24'0 0.0
2019-Sep-15 06:00N 48°25' W 123°24'0 0.0
2019-Sep-15 05:30N 48°25' W 123°24'0 0.0
2019-Sep-15 04:59N 48°25' W 123°24'0 0.0
2019-Sep-15 04:29N 48°25' W 123°24'0 0.0
2019-Sep-15 03:59N 48°25' W 123°24'0 0.0
2019-Sep-15 03:29N 48°25' W 123°24'0 0.0
2019-Sep-15 02:59N 48°25' W 123°24'0 0.0
2019-Sep-15 02:28N 48°25' W 123°24'0 0.0
2019-Sep-15 01:58N 48°25' W 123°24'0 0.0
2019-Sep-15 01:29N 48°25' W 123°24'1 1.2
2019-Sep-15 01:00N 48°25' W 123°24'611.1
2019-Sep-15 00:31N 48°19' W 123°25'612.2
2019-Sep-15 00:00N 48°14' W 123°31'612.7
2019-Sep-14 23:30N 48°14' W 123°40'713.0
2019-Sep-14 23:00N 48°14' W 123°50'713.1
2019-Sep-14 22:31N 48°15' W 123°60'713.4
2019-Sep-14 22:00N 48°18' W 124°09'713.4
2019-Sep-14 21:30N 48°21' W 124°18'713.3
2019-Sep-14 21:01N 48°24' W 124°27'713.3
2019-Sep-14 20:30N 48°26' W 124°36'713.4
2019-Sep-14 20:00N 48°29' W 124°46'713.9
2019-Sep-14 19:30N 48°29' W 124°56'713.8
2019-Sep-14 19:00N 48°29' W 125°06'612.7
2019-Sep-14 18:30N 48°31' W 125°15'612.3
2019-Sep-14 18:00N 48°35' W 125°23'6362.7
2019-Sep-14 18:00N 48°30' W 125°18'1428.3 190 / 381010.1 5.4 16.014.315.0
2019-Sep-14 17:30N 48°39' W 125°33'817.0
2019-Sep-14 17:00N 48°44' W 125°44'816.8
2019-Sep-14 16:30N 48°49' W 125°54'917.1
2019-Sep-14 16:00N 48°54' W 126°05'917.3
2019-Sep-14 15:30N 48°59' W 126°15'917.4
2019-Sep-14 15:00N 49°04' W 126°26'917.5
2019-Sep-14 14:29N 49°09' W 126°38'918.3
2019-Sep-14 14:00N 49°14' W 126°49'2174.1
2019-Sep-14 14:00N 49°12' W 126°48'8718.1 200 / 331013.1 5.4 16.515.718.0
2019-Sep-14 09:13N 50°08' W 128°30'2118.2
2019-Sep-14 08:05N 50°22' W 128°53'518.2
2019-Sep-14 07:49N 50°26' W 128°59'1918.0
2019-Sep-14 06:45N 50°38' W 129°22'5815.6
2019-Sep-14 03:00N 51°18' W 130°30'25521.3 220 / 321015.3 5.4 15.514.617.0
2019-Sep-13 15:00N 55°00' W 134°00'   170 / 301003.1 5.4 13.512.612.0

Dump ship's entire track history